Powrót do katalogu

CZ-6A R/B

AktywnyPO
NORAD 63922·ROCKET BODY·🇨🇳 China

Wystrzelony May 11, 2025 z Taiyuan Satellite Launch Center

Loading…

Następne Przeloty (najbliższe 24 godziny)

TLE

ŚwieżeSource: Space-Track

Epoka: Sep 14, 2026, 15:23 UTC

1 63922U 25096E   26257.64153562  .00000317  00000-0  53471-4 0  9993
2 63922  86.0179 130.2264 0068319 194.0514 165.8800 14.64228867 71794

Śledź CZ-6A R/B w czasie rzeczywistym z AllMySat

Download on the App Store